Terminal Aerodrome Forecast
Issued by NWS

Current Version | Previous Version | Text Only | Print | Product List | Glossary On
Versions: 1 2 3 4 5 6 7 8 9 10 11 12
000
FTUS42 TJSJ 281700
TAFIST
TAF
TIST 281740Z 2818/2918 13012G18KT P6SM SCT030
     FM282300 09011KT P6SM FEW030
     FM291300 13012KT P6SM SCT025=

USA.gov is the U.S. government's official web portal to all federal, state and local government web resources and services.